LiveATC.Net - Listen to live air traffic control over the Internet!
Airport/ARTCC Code
Frequency Search
(e.g., 124.400, 128.75)
Site-wide search
 


Browse Feeds
Top 50 Feeds
HF Oceanic Feeds
Coverage Map
Bad Weather Areas

LiveATC FAQ
Offer LiveATC feed
Contact LiveATC.net
Press Inquiries

LiveATC on iPhone
LiveATC on Android

Windows Phone
Windows 8/10

LiveATC Mobile
(Mobile browser)

ATC Audio Archives
Interesting Recordings

LiveATC Forums

Home Page
About LiveATC.net
Make a Donation
Terms of Use
Privacy Policy

Canadian Air Freqs

AIRMETs/SIGMETs

FAA Airport Status
NAS Status
Arrival Demand


Server Software By:
Icecast.org
Liquidsoap

Select an area of interest:
U.S. Feeds: Class B Airports | Class C Airports | Class D/Other Airports | ARTCC (Centers)
International Feeds: Canada | Europe | Oceania | Asia | South America | North/Central America | Africa
Misc Feeds: HF Feeds
Search by ICAO/IATA airport code:   (e.g., kbos, kjfk, lax, eham, etc.)


Currently Available Live Feeds: 2950
Status Updated: Mon Oct 18 2021 13:43:38 UTC


NOTICE

Unauthorized use prohibited. See LiveATC.net Terms of Service

North and Central America Airport Feeds

 

MDPP App/Dep (Archives)
Puerto Plata, Dominican Republic

Feed Status: UP
Listen in your browser - HTML5 player(in browser, HTML5)
Click here to listen with your own player(launches your MP3 player)

MDPP 181300Z 00000KT 9999 FEW018 28/23 Q1014

MDPP Flight Activity (Flightaware)

Listeners: 0 out of 1341 total

Puerto Plata Approach/Departure: 119.000

MDPP Ground/Center (Archives)
Puerto Plata, Dominican Republic

Feed Status: UP
Listen in your browser - HTML5 player(in browser, HTML5)
Click here to listen with your own player(launches your MP3 player)

MDPP 181300Z 00000KT 9999 FEW018 28/23 Q1014

MDPP Flight Activity (Flightaware)

Listeners: 0 out of 1341 total

Puerto Plata Ground: 121.900
Santo Domingo Center: 124.300

MDPP Ground/Tower/Center (Archives)
Puerto Plata, Dominican Republic

Feed Status: UP
Listen in your browser - HTML5 player(in browser, HTML5)
Click here to listen with your own player(launches your MP3 player)

MDPP 181300Z 00000KT 9999 FEW018 28/23 Q1014

MDPP Flight Activity (Flightaware)

Listeners: 0 out of 1341 total

Puerto Plata Ground: 121.900
Puerto Plata Tower: 118.000
Santo Domingo Center: 124.300

MDPP Tower (Archives)
Puerto Plata, Dominican Republic

Feed Status: UP
Listen in your browser - HTML5 player(in browser, HTML5)
Click here to listen with your own player(launches your MP3 player)

MDPP 181300Z 00000KT 9999 FEW018 28/23 Q1014

MDPP Flight Activity (Flightaware)

Listeners: 0 out of 1341 total

Puerto Plata Tower: 118.000

MMCU Twr/App (Archives)
Chihuahua, Mexico

Feed Status: UP
Listen in your browser - HTML5 player(in browser, HTML5)
Click here to listen with your own player(launches your MP3 player)


MMCU Flight Activity (Flightaware)

Listeners: 0 out of 1341 total

Chihuahua Approach: 121.000
Chihuahua Tower: 118.400

MMGL Twr/App (Archives)
Guadalajara, Mexico

Feed Status: UP
Listen in your browser - HTML5 player(in browser, HTML5)
Click here to listen with your own player(launches your MP3 player)

MMGL 181245Z 00000KT 5SM SKC 14/12 A3023 RMK HZY ISOL SC-AC

MMGL Flight Activity (Flightaware)

Listeners: 4 out of 1341 total

Guadalajara Approach: 120.800
Guadalajara Tower: 118.100

MMHO App/Dep (Archives)
Hermosillo, Mexico

Feed Status: UP
Listen in your browser - HTML5 player(in browser, HTML5)
Click here to listen with your own player(launches your MP3 player)

MMHO 181241Z 12003KT 10SM SCT100 BKN200 21/10 A2994 RMK 8/038 HZY

MMHO Flight Activity (Flightaware)

Listeners: 0 out of 1341 total

Hermosillo Approach/Departure: 121.400

MMHO Info (Archives)
Hermosillo, Mexico

Feed Status: UP
Listen in your browser - HTML5 player(in browser, HTML5)
Click here to listen with your own player(launches your MP3 player)

MMHO 181241Z 12003KT 10SM SCT100 BKN200 21/10 A2994 RMK 8/038 HZY

MMHO Flight Activity (Flightaware)

Listeners: 0 out of 1341 total

Hermosillo Info: 122.300

MMHO Tower (Archives)
Hermosillo, Mexico

Feed Status: UP
Listen in your browser - HTML5 player(in browser, HTML5)
Click here to listen with your own player(launches your MP3 player)

MMHO 181241Z 12003KT 10SM SCT100 BKN200 21/10 A2994 RMK 8/038 HZY

MMHO Flight Activity (Flightaware)

Listeners: 0 out of 1341 total

Hermosillo Tower: 118.700

MMHO Twr/App (Archives)
Hermosillo, Mexico

Feed Status: UP
Listen in your browser - HTML5 player(in browser, HTML5)
Click here to listen with your own player(launches your MP3 player)

MMHO 181241Z 12003KT 10SM SCT100 BKN200 21/10 A2994 RMK 8/038 HZY

MMHO Flight Activity (Flightaware)

Listeners: 0 out of 1341 total

Hermosillo Approach/Departure: 121.400
Hermosillo Info: 122.300
Hermosillo Tower: 118.700

MMLP Twr/App (Archives)
La Paz, Mexico

Feed Status: UP
Listen in your browser - HTML5 player(in browser, HTML5)
Click here to listen with your own player(launches your MP3 player)

MMLP 181259Z RTD 14003KT 10SM FEW065 BKN200 21/17 A2998 RMK 8/088 RTS

MMLP Flight Activity (Flightaware)

Listeners: 0 out of 1341 total

La Paz Approach: 120.600
La Paz Tower: 118.100

MMMD App/Dep
Merida, Mexico

Feed Status: DOWN
Offline since: 2021-09-23 05:00:05 UTC

MMMD 181245Z 12004KT 7SM SCT300 25/23 A2998 RMK 8/008 HZY DSNT TCU N NW

Merida Approach: 121.200

MMMD Merida Center 125.2/128.2
Merida, Mexico

Feed Status: DOWN
Offline since: 2021-09-23 04:35:06 UTC

MMMD 181245Z 12004KT 7SM SCT300 25/23 A2998 RMK 8/008 HZY DSNT TCU N NW

Merida Center: 125.200
Merida Center: 128.200

MMMD Merida Center 125.8/123.75
Merida, Mexico

Feed Status: DOWN
Offline since: 2021-09-23 04:55:05 UTC

MMMD 181245Z 12004KT 7SM SCT300 25/23 A2998 RMK 8/008 HZY DSNT TCU N NW

Merida Center: 125.800
Merida Center: 123.750

MMMD Tower
Merida, Mexico

Feed Status: DOWN
Offline since: 2021-09-23 05:00:05 UTC

MMMD 181245Z 12004KT 7SM SCT300 25/23 A2998 RMK 8/008 HZY DSNT TCU N NW

Merida Tower: 118.300

MMMM Tower (Archives)
Morelia, Mexico

Feed Status: UP
Listen in your browser - HTML5 player(in browser, HTML5)
Click here to listen with your own player(launches your MP3 player)

MMMM 181318Z 00000KT 8SM SKC 10/10 A3029 RMK SC BR W

MMMM Flight Activity (Flightaware)

Listeners: 0 out of 1341 total

Morelia Tower: 118.500

MMMX Approach (Archives)
Mexico City, Mexico

Feed Status: UP
Listen in your browser - HTML5 player(in browser, HTML5)
Click here to listen with your own player(launches your MP3 player)

MMMX 181246Z 08006KT 4SM SCT010 08/07 A3039 TEMPO 1/2SM FG RMK 8/600 HZY SFC VSBY 1/4SM FG 1ST QUAD

MMMX Flight Activity (Flightaware)

Listeners: 7 out of 1341 total

Mexico City Approach: 121.200

MMMX Twr/App (Archives)
Mexico City, Mexico

Feed Status: UP
Listen in your browser - HTML5 player(in browser, HTML5)
Click here to listen with your own player(launches your MP3 player)

MMMX 181246Z 08006KT 4SM SCT010 08/07 A3039 TEMPO 1/2SM FG RMK 8/600 HZY SFC VSBY 1/4SM FG 1ST QUAD

MMMX Flight Activity (Flightaware)

Listeners: 4 out of 1341 total

Mexico City Approach: 121.200
Mexico City Arrival (North): 129.650
Mexico City Arrival (South): 119.100
Mexico City Final Approach: 119.750
Mexico City Tower: 118.550

MMMY Tower/Approach (Archives)
Monterrey, Mexico

Feed Status: UP
Listen in your browser - HTML5 player(in browser, HTML5)
Click here to listen with your own player(launches your MP3 player)

MMMY 181240Z 34003KT 15SM SKC 14/10 A3010

MMMY Flight Activity (Flightaware)

Listeners: 1 out of 1341 total

Monterrey Approach/Departure: 119.750
Monterrey Tower: 118.100

MMPC CTAF (Archives)
Pachuca, Mexico

Feed Status: UP
Listen in your browser - HTML5 player(in browser, HTML5)
Click here to listen with your own player(launches your MP3 player)

MMPC Flight Activity (Flightaware)

Listeners: 0 out of 1341 total

Pachuca CTAF/AFIS: 122.900

MMQT Tower/App
Queretaro, Mexico

Feed Status: DOWN
Offline since: 2021-10-10 15:21:05 UTC

MMQT 181244Z 00000KT 1SM BR HZ SCT250 09/09 A3037 RMK 8/001

Queretaro Approach: 127.200
Queretaro Tower: 118.950

MMTC Twr/App/Center (Archives)
Torreon, Mexico

Feed Status: UP
Listen in your browser - HTML5 player(in browser, HTML5)
Click here to listen with your own player(launches your MP3 player)

MMTC 181244Z 00000KT 10SM SKC 17/10 A3014 RMK ISOL AS

MMTC Flight Activity (Flightaware)

Listeners: 0 out of 1341 total

Mazatlan Center: 124.200
Mazatlan Center: 124.400
Mazatlan Center: 128.000
Mexico Center: 123.900
Monterrey Center: 125.600
Monterrey Center: 125.425
Monterrey Center: 127.400
Torreon Approach: 119.500
Torreon Tower: 118.500

MMTJ Approach (Archives)
Tijuana, Mexico

Feed Status: UP
Listen in your browser - HTML5 player(in browser, HTML5)
Click here to listen with your own player(launches your MP3 player)

MMTJ 181241Z 16003KT 7SM BKN010 OVC025 15/13 A3000 RMK 8/7// OCNL DROPS

MMTJ Flight Activity (Flightaware)

Listeners: 2 out of 1341 total

Tijuana Approach: 120.300

MMTJ Twr/Ramp (Archives)
Tijuana, Mexico

Feed Status: UP
Listen in your browser - HTML5 player(in browser, HTML5)
Click here to listen with your own player(launches your MP3 player)

MMTJ 181241Z 16003KT 7SM BKN010 OVC025 15/13 A3000 RMK 8/7// OCNL DROPS

MMTJ Flight Activity (Flightaware)

Listeners: 0 out of 1341 total

Tijuana Ramp: 126.100
Tijuana Tower: 118.100

MUFH Havana FIR (App/Center) (Archives)
Havana, Cuba

Feed Status: UP
Listen in your browser - HTML5 player(in browser, HTML5)
Click here to listen with your own player(launches your MP3 player)

MUFH Flight Activity (Flightaware)

Listeners: 0 out of 1341 total

Hava Approach: 120.300
Havana Center: 120.250
Havana Center: 123.700
Havana Center: 124.550
Havana Center: 133.700
Havana Center: 135.100

Miami Center (Bahamas Area) (Archives)
Deadman's Cay, Bahamas

Feed Status: UP
Listen in your browser - HTML5 player(in browser, HTML5)
Click here to listen with your own player(launches your MP3 player)


MYLD Flight Activity (Flightaware)

Listeners: 0 out of 1341 total

Miami Center (TBD/Misc):

MYLD Emergency/Guard (Archives)
Deadman's Cay, Bahamas

Feed Status: UP
Listen in your browser - HTML5 player(in browser, HTML5)
Click here to listen with your own player(launches your MP3 player)


MYLD Flight Activity (Flightaware)

Listeners: 0 out of 1341 total

Emergency/Guard: 121.500

MYLD/MYLS CTAF (Archives)
Deadman's Cay, Bahamas

Feed Status: UP
Listen in your browser - HTML5 player(in browser, HTML5)
Click here to listen with your own player(launches your MP3 player)


MYLD Flight Activity (Flightaware)

Listeners: 0 out of 1341 total

Deadmans Cay CTAF: 122.800

MYLD/MYLS CTAF (Archives)
Stella Maris, Bahamas

Feed Status: UP
Listen in your browser - HTML5 player(in browser, HTML5)
Click here to listen with your own player(launches your MP3 player)


MYLD Flight Activity (Flightaware)

Listeners: 0 out of 1341 total

Deadmans Cay CTAF: 122.800

TBPB Gnd/Twr/Radar/Center (Archives)
Bridgetown, Barbados

Feed Status: UP
Listen in your browser - HTML5 player(in browser, HTML5)
Click here to listen with your own player(launches your MP3 player)

TBPB 181300Z 10010KT 9999 VCSH FEW012CB SCT016 31/24 Q1013 NOSIG

TBPB Flight Activity (Flightaware)

Listeners: 0 out of 1341 total

Adams Approach/Departure: 129.350
Adams Approach/Departure: 128.850
Adams Ground: 121.900
Adams Tower: 118.700
Piarco Center: 123.700

TNCM App/Dep (Archives)
Philipsburg, Saint Martin

Feed Status: UP
Listen in your browser - HTML5 player(in browser, HTML5)
Click here to listen with your own player(launches your MP3 player)

TNCM 181300Z VRB01KT 9999 FEW020 29/25 Q1015 NOSIG

TNCM Flight Activity (Flightaware)

Listeners: 0 out of 1341 total

Juliana Approach (only when busy): 128.950

TNCM Clearance Delivery (Archives)
Philipsburg, Saint Martin

Feed Status: UP
Listen in your browser - HTML5 player(in browser, HTML5)
Click here to listen with your own player(launches your MP3 player)

TNCM 181300Z VRB01KT 9999 FEW020 29/25 Q1015 NOSIG

TNCM Flight Activity (Flightaware)

Listeners: 0 out of 1341 total

Juliana Clearance Delivery: 121.650

TNCM Tower (Archives)
Philipsburg, Saint Martin

Feed Status: UP
Listen in your browser - HTML5 player(in browser, HTML5)
Click here to listen with your own player(launches your MP3 player)

TNCM 181300Z VRB01KT 9999 FEW020 29/25 Q1015 NOSIG

TNCM Flight Activity (Flightaware)

Listeners: 1 out of 1341 total

Juliana Tower (TNCM): 118.700

TQPF Tower (Archives)
The Valley, Anguilla

Feed Status: UP
Listen in your browser - HTML5 player(in browser, HTML5)
Click here to listen with your own player(launches your MP3 player)

TNCM 181300Z VRB01KT 9999 FEW020 29/25 Q1015 NOSIG

TNCM Flight Activity (Flightaware)

Listeners: 0 out of 1341 total

Anguilla Tower: 118.500

TXKF ATIS (Archives)
Hamilton, Bermuda

Feed Status: UP
Listen in your browser - HTML5 player(in browser, HTML5)
Click here to listen with your own player(launches your MP3 player)

TXKF 181255Z 33014KT 9999 SCT026 BKN044 BKN300 24/19 Q1011

TXKF Flight Activity (Flightaware)

Listeners: 0 out of 1341 total

Bermuda ATIS: 119.600

TXKF Del/Gnd (Archives)
Hamilton, Bermuda

Feed Status: UP
Listen in your browser - HTML5 player(in browser, HTML5)
Click here to listen with your own player(launches your MP3 player)

TXKF 181255Z 33014KT 9999 SCT026 BKN044 BKN300 24/19 Q1011

TXKF Flight Activity (Flightaware)

Listeners: 0 out of 1341 total

Bermuda Ground/Clearance: 124.500

TXKF Del/Gnd/Twr/CTAF (Archives)
Hamilton, Bermuda

Feed Status: UP
Listen in your browser - HTML5 player(in browser, HTML5)
Click here to listen with your own player(launches your MP3 player)

TXKF 181255Z 33014KT 9999 SCT026 BKN044 BKN300 24/19 Q1011

TXKF Flight Activity (Flightaware)

Listeners: 0 out of 1341 total

Bermuda CTAF: 122.800
Bermuda Ground/Clearance: 124.500
Bermuda Tower: 118.100

TXKF Tower (Archives)
Hamilton, Bermuda

Feed Status: UP
Listen in your browser - HTML5 player(in browser, HTML5)
Click here to listen with your own player(launches your MP3 player)

TXKF 181255Z 33014KT 9999 SCT026 BKN044 BKN300 24/19 Q1011

TXKF Flight Activity (Flightaware)

Listeners: 0 out of 1341 total

Bermuda Tower: 118.100

ZNY Sector 81 (Bermuda)/App (Archives)
Hamilton, Bermuda

Feed Status: UP
Listen in your browser - HTML5 player(in browser, HTML5)
Click here to listen with your own player(launches your MP3 player)

TXKF 181255Z 33014KT 9999 SCT026 BKN044 BKN300 24/19 Q1011

TXKF Flight Activity (Flightaware)

Listeners: 0 out of 1341 total

New York Approach: 119.100
New York Center (BDA81 Bermuda Sector): 128.500

MHLC Gnd/Twr/Center (Archives)
La Ceiba, Honduras

Feed Status: UP
Listen in your browser - HTML5 player(in browser, HTML5)
Click here to listen with your own player(launches your MP3 player)

MHLC 181300Z 00000KT 9999 FEW030 BKN200 25/23 Q1013 A2992 NOSIG

MHLC Flight Activity (Flightaware)

Listeners: 0 out of 1341 total

CENAMER: 123.900
CENAMER: 124.300
Goloson Ground: 121.900
Goloson Tower: 118.500
La Ceiba Radio: 128.900

MHLM Gnd/Twr/App
San Pedro Sula, Honduras

Feed Status: DOWN
Offline since: 2021-10-15 19:42:23 UTC

MHLM 181300Z 28005KT 9999 FEW025TCU BKN250 24/22 Q1013 A2992 NOSIG

La Mesa Ground: 121.900
La Mesa Tower: 118.200
San Pedro Sula Approach: 119.700

MHRO Gnd/Twr/App/Center (Archives)
Roatan, Honduras

Feed Status: UP
Listen in your browser - HTML5 player(in browser, HTML5)
Click here to listen with your own player(launches your MP3 player)

MHRO 181300Z 02006KT 9999 SCT018 BKN220 28/26 Q1013 A2992 NOSIG

MHRO Flight Activity (Flightaware)

Listeners: 0 out of 1341 total

CENAMER (Center): 124.300
La Ceiba Radio: 128.900
Roatan Ground: 121.600
Roatan Tower: 118.100

MHTG Gnd/Twr/App/Ctr/Ops (Archives)
Tegucigalpa, Honduras

Feed Status: UP
Listen in your browser - HTML5 player(in browser, HTML5)
Click here to listen with your own player(launches your MP3 player)

MHTG 181300Z VRB02KT 7000 FEW006 BKN024 20/19 Q1019 A3009 NOSIG

MHTG Flight Activity (Flightaware)

Listeners: 1 out of 1341 total

American Airlines Ops: 130.700
ARINC ACARS: 131.550
Cenamer Center: 123.900
Cenamer Center: 124.300
Cenamer Center: 124.100
CMP Ops: 129.925
Continental Airlines Ops: 129.925
FAH Ground: 122.900
Taca Ops: 131.300
Taca Ops Sal: 130.300
Tecnologias Unidas: 133.000
Tegucigalpa RDO: 126.700
Toncontin Approach: 119.100
Toncontin Ground: 121.900
Toncontin Tower: 118.700

MPMG Ground (Archives)
Panama City, Panama

Feed Status: UP
Listen in your browser - HTML5 player(in browser, HTML5)
Click here to listen with your own player(launches your MP3 player)

MPMG 181300Z 00000KT 9999 FEW009 FEW016CB SCT080 27/24 Q1012 RWY DAMP NOSIG

MPMG Flight Activity (Flightaware)

Listeners: 0 out of 1341 total

Gelabert Ground: 121.700

MPMG Tower (Archives)
Panama City, Panama

Feed Status: UP
Listen in your browser - HTML5 player(in browser, HTML5)
Click here to listen with your own player(launches your MP3 player)

MPMG 181300Z 00000KT 9999 FEW009 FEW016CB SCT080 27/24 Q1012 RWY DAMP NOSIG

MPMG Flight Activity (Flightaware)

Listeners: 0 out of 1341 total

Gelabert Tower: 118.300

Panama App/Dep #2 (Archives)
Panama City, Panama

Feed Status: UP
Listen in your browser - HTML5 player(in browser, HTML5)
Click here to listen with your own player(launches your MP3 player)

MPPA 181300Z 00000KT 9999 FEW016CB 26/25 Q1012

MPPA Flight Activity (Flightaware)

Listeners: 0 out of 1341 total

Panama Approach: 119.700
Panama Departure: 119.200

Panama App/Dep #3 (Archives)
Panama City, Panama

Feed Status: UP
Listen in your browser - HTML5 player(in browser, HTML5)
Click here to listen with your own player(launches your MP3 player)

MPTO 181300Z VRB02KT 9999 SCT018CB SCT090 26/24 Q1012 NOSIG

MPTO Flight Activity (Flightaware)

Listeners: 0 out of 1341 total

Panama Approach: 119.700
Panama Departure: 119.200

Panama Approach #1 (Archives)
Panama City, Panama

Feed Status: UP
Listen in your browser - HTML5 player(in browser, HTML5)
Click here to listen with your own player(launches your MP3 player)

MPMG 181300Z 00000KT 9999 FEW009 FEW016CB SCT080 27/24 Q1012 RWY DAMP NOSIG

MPMG Flight Activity (Flightaware)

Listeners: 0 out of 1341 total

Panama Approach: 119.700

Panama Center #1 (Archives)
Panama City, Panama

Feed Status: UP
Listen in your browser - HTML5 player(in browser, HTML5)
Click here to listen with your own player(launches your MP3 player)

MPMG 181300Z 00000KT 9999 FEW009 FEW016CB SCT080 27/24 Q1012 RWY DAMP NOSIG

MPMG Flight Activity (Flightaware)

Listeners: 0 out of 1341 total

Panama Center: 134.900
Panama Center (North): 133.300
Panama Center (North): 125.500
Panama Center (South): 123.300
Panama Center (South): 133.000

Panama Center #2 (Archives)
Panama City, Panama

Feed Status: UP
Listen in your browser - HTML5 player(in browser, HTML5)
Click here to listen with your own player(launches your MP3 player)

MPPA 181300Z 00000KT 9999 FEW016CB 26/25 Q1012

MPPA Flight Activity (Flightaware)

Listeners: 0 out of 1341 total

Panama Center: 134.900
Panama Center (North): 125.500
Panama Center (North): 133.300
Panama Center (South): 123.300
Panama Center (South): 133.000

Panama Radio #1 (Archives)
Panama City, Panama

Feed Status: UP
Listen in your browser - HTML5 player(in browser, HTML5)
Click here to listen with your own player(launches your MP3 player)

MPMG 181300Z 00000KT 9999 FEW009 FEW016CB SCT080 27/24 Q1012 RWY DAMP NOSIG

MPMG Flight Activity (Flightaware)

Listeners: 0 out of 1341 total

Panama Radio: 123.600
Panama Radio: 126.900

Panama Traffic Advisory #1 (Archives)
Panama City, Panama

Feed Status: UP
Listen in your browser - HTML5 player(in browser, HTML5)
Click here to listen with your own player(launches your MP3 player)

MPMG 181300Z 00000KT 9999 FEW009 FEW016CB SCT080 27/24 Q1012 RWY DAMP NOSIG

MPMG Flight Activity (Flightaware)

Listeners: 0 out of 1341 total

Panama Traffic Advisory: 121.200

MPPA Ground (Archives)
Panama City, Panama

Feed Status: UP
Listen in your browser - HTML5 player(in browser, HTML5)
Click here to listen with your own player(launches your MP3 player)

MPPA 181300Z 00000KT 9999 FEW016CB 26/25 Q1012

MPPA Flight Activity (Flightaware)

Listeners: 0 out of 1341 total

Pacifico Ground: 121.100

MPPA Ground/Tower (Archives)
Panama City, Panama

Feed Status: UP
Listen in your browser - HTML5 player(in browser, HTML5)
Click here to listen with your own player(launches your MP3 player)

MPPA 181300Z 00000KT 9999 FEW016CB 26/25 Q1012

MPPA Flight Activity (Flightaware)

Listeners: 0 out of 1341 total

Pacifico Ground: 121.100
Pacifico Tower: 118.900

MPPA Tower (Archives)
Panama City, Panama

Feed Status: UP
Listen in your browser - HTML5 player(in browser, HTML5)
Click here to listen with your own player(launches your MP3 player)

MPPA 181300Z 00000KT 9999 FEW016CB 26/25 Q1012

MPPA Flight Activity (Flightaware)

Listeners: 0 out of 1341 total

Pacifico Tower: 118.900

Panama App/Dep #2 (Archives)
Panama City, Panama

Feed Status: UP
Listen in your browser - HTML5 player(in browser, HTML5)
Click here to listen with your own player(launches your MP3 player)

MPPA 181300Z 00000KT 9999 FEW016CB 26/25 Q1012

MPPA Flight Activity (Flightaware)

Listeners: 0 out of 1341 total

Panama Approach: 119.700
Panama Departure: 119.200

Panama App/Dep #3 (Archives)
Panama City, Panama

Feed Status: UP
Listen in your browser - HTML5 player(in browser, HTML5)
Click here to listen with your own player(launches your MP3 player)

MPTO 181300Z VRB02KT 9999 SCT018CB SCT090 26/24 Q1012 NOSIG

MPTO Flight Activity (Flightaware)

Listeners: 0 out of 1341 total

Panama Approach: 119.700
Panama Departure: 119.200

Panama Approach #1 (Archives)
Panama City, Panama

Feed Status: UP
Listen in your browser - HTML5 player(in browser, HTML5)
Click here to listen with your own player(launches your MP3 player)

MPMG 181300Z 00000KT 9999 FEW009 FEW016CB SCT080 27/24 Q1012 RWY DAMP NOSIG

MPMG Flight Activity (Flightaware)

Listeners: 0 out of 1341 total

Panama Approach: 119.700

Panama Center #1 (Archives)
Panama City, Panama

Feed Status: UP
Listen in your browser - HTML5 player(in browser, HTML5)
Click here to listen with your own player(launches your MP3 player)

MPMG 181300Z 00000KT 9999 FEW009 FEW016CB SCT080 27/24 Q1012 RWY DAMP NOSIG

MPMG Flight Activity (Flightaware)

Listeners: 0 out of 1341 total

Panama Center: 134.900
Panama Center (North): 133.300
Panama Center (North): 125.500
Panama Center (South): 123.300
Panama Center (South): 133.000

Panama Center #2 (Archives)
Panama City, Panama

Feed Status: UP
Listen in your browser - HTML5 player(in browser, HTML5)
Click here to listen with your own player(launches your MP3 player)

MPPA 181300Z 00000KT 9999 FEW016CB 26/25 Q1012

MPPA Flight Activity (Flightaware)

Listeners: 0 out of 1341 total

Panama Center: 134.900
Panama Center (North): 125.500
Panama Center (North): 133.300
Panama Center (South): 123.300
Panama Center (South): 133.000

Panama Radio #1 (Archives)
Panama City, Panama

Feed Status: UP
Listen in your browser - HTML5 player(in browser, HTML5)
Click here to listen with your own player(launches your MP3 player)

MPMG 181300Z 00000KT 9999 FEW009 FEW016CB SCT080 27/24 Q1012 RWY DAMP NOSIG

MPMG Flight Activity (Flightaware)

Listeners: 0 out of 1341 total

Panama Radio: 123.600
Panama Radio: 126.900

Panama Traffic Advisory #1 (Archives)
Panama City, Panama

Feed Status: UP
Listen in your browser - HTML5 player(in browser, HTML5)
Click here to listen with your own player(launches your MP3 player)

MPMG 181300Z 00000KT 9999 FEW009 FEW016CB SCT080 27/24 Q1012 RWY DAMP NOSIG

MPMG Flight Activity (Flightaware)

Listeners: 0 out of 1341 total

Panama Traffic Advisory: 121.200

MPTO ATIS (Archives)
Panama City, Panama

Feed Status: UP
Listen in your browser - HTML5 player(in browser, HTML5)
Click here to listen with your own player(launches your MP3 player)

MPTO 181300Z VRB02KT 9999 SCT018CB SCT090 26/24 Q1012 NOSIG

MPTO Flight Activity (Flightaware)

Listeners: 0 out of 1341 total

Panama ATIS: 127.700

MPTO Clearance Delivery (Archives)
Panama City, Panama

Feed Status: UP
Listen in your browser - HTML5 player(in browser, HTML5)
Click here to listen with your own player(launches your MP3 player)

MPTO 181300Z VRB02KT 9999 SCT018CB SCT090 26/24 Q1012 NOSIG

MPTO Flight Activity (Flightaware)

Listeners: 0 out of 1341 total

Panama Clearance Delivery: 129.800

MPTO Del/Ground (Archives)
Panama City, Panama

Feed Status: UP
Listen in your browser - HTML5 player(in browser, HTML5)
Click here to listen with your own player(launches your MP3 player)

MPTO 181300Z VRB02KT 9999 SCT018CB SCT090 26/24 Q1012 NOSIG

MPTO Flight Activity (Flightaware)

Listeners: 0 out of 1341 total

Panama Clearance Delivery: 129.800
Panama Ground: 121.900

MPTO Ground (Archives)
Panama City, Panama

Feed Status: UP
Listen in your browser - HTML5 player(in browser, HTML5)
Click here to listen with your own player(launches your MP3 player)

MPTO 181300Z VRB02KT 9999 SCT018CB SCT090 26/24 Q1012 NOSIG

MPTO Flight Activity (Flightaware)

Listeners: 1 out of 1341 total

Panama Ground: 121.900

MPTO Ground/Tower (Archives)
Panama City, Panama

Feed Status: UP
Listen in your browser - HTML5 player(in browser, HTML5)
Click here to listen with your own player(launches your MP3 player)

MPTO 181300Z VRB02KT 9999 SCT018CB SCT090 26/24 Q1012 NOSIG

MPTO Flight Activity (Flightaware)

Listeners: 0 out of 1341 total

Panama Ground: 121.900
Panama Tower: 118.100

MPTO Tower (Archives)
Panama City, Panama

Feed Status: UP
Listen in your browser - HTML5 player(in browser, HTML5)
Click here to listen with your own player(launches your MP3 player)

MPTO 181300Z VRB02KT 9999 SCT018CB SCT090 26/24 Q1012 NOSIG

MPTO Flight Activity (Flightaware)

Listeners: 0 out of 1341 total

Panama Tower: 118.100

Panama App/Dep #2 (Archives)
Panama City, Panama

Feed Status: UP
Listen in your browser - HTML5 player(in browser, HTML5)
Click here to listen with your own player(launches your MP3 player)

MPPA 181300Z 00000KT 9999 FEW016CB 26/25 Q1012

MPPA Flight Activity (Flightaware)

Listeners: 0 out of 1341 total

Panama Approach: 119.700
Panama Departure: 119.200

Panama App/Dep #3 (Archives)
Panama City, Panama

Feed Status: UP
Listen in your browser - HTML5 player(in browser, HTML5)
Click here to listen with your own player(launches your MP3 player)

MPTO 181300Z VRB02KT 9999 SCT018CB SCT090 26/24 Q1012 NOSIG

MPTO Flight Activity (Flightaware)

Listeners: 0 out of 1341 total

Panama Approach: 119.700
Panama Departure: 119.200

Panama Approach #1 (Archives)
Panama City, Panama

Feed Status: UP
Listen in your browser - HTML5 player(in browser, HTML5)
Click here to listen with your own player(launches your MP3 player)

MPMG 181300Z 00000KT 9999 FEW009 FEW016CB SCT080 27/24 Q1012 RWY DAMP NOSIG

MPMG Flight Activity (Flightaware)

Listeners: 0 out of 1341 total

Panama Approach: 119.700

Panama Center #1 (Archives)
Panama City, Panama

Feed Status: UP
Listen in your browser - HTML5 player(in browser, HTML5)
Click here to listen with your own player(launches your MP3 player)

MPMG 181300Z 00000KT 9999 FEW009 FEW016CB SCT080 27/24 Q1012 RWY DAMP NOSIG

MPMG Flight Activity (Flightaware)

Listeners: 0 out of 1341 total

Panama Center: 134.900
Panama Center (North): 133.300
Panama Center (North): 125.500
Panama Center (South): 123.300
Panama Center (South): 133.000

Panama Center #2 (Archives)
Panama City, Panama

Feed Status: UP
Listen in your browser - HTML5 player(in browser, HTML5)
Click here to listen with your own player(launches your MP3 player)

MPPA 181300Z 00000KT 9999 FEW016CB 26/25 Q1012

MPPA Flight Activity (Flightaware)

Listeners: 0 out of 1341 total

Panama Center: 134.900
Panama Center (North): 125.500
Panama Center (North): 133.300
Panama Center (South): 123.300
Panama Center (South): 133.000

Panama Radio #1 (Archives)
Panama City, Panama

Feed Status: UP
Listen in your browser - HTML5 player(in browser, HTML5)
Click here to listen with your own player(launches your MP3 player)

MPMG 181300Z 00000KT 9999 FEW009 FEW016CB SCT080 27/24 Q1012 RWY DAMP NOSIG

MPMG Flight Activity (Flightaware)

Listeners: 0 out of 1341 total

Panama Radio: 123.600
Panama Radio: 126.900

Panama Traffic Advisory #1 (Archives)
Panama City, Panama

Feed Status: UP
Listen in your browser - HTML5 player(in browser, HTML5)
Click here to listen with your own player(launches your MP3 player)

MPMG 181300Z 00000KT 9999 FEW009 FEW016CB SCT080 27/24 Q1012 RWY DAMP NOSIG

MPMG Flight Activity (Flightaware)

Listeners: 0 out of 1341 total

Panama Traffic Advisory: 121.200

CENAMER/Panama ACC (Archives)
San Jose, Costa Rica

Feed Status: UP
Listen in your browser - HTML5 player(in browser, HTML5)
Click here to listen with your own player(launches your MP3 player)

MROC 181300Z 07004KT CAVOK 22/20 A3002 NOSIG

MROC Flight Activity (Flightaware)

Listeners: 0 out of 1341 total

Central American Center (CENAMER Control): 124.100
Central American Center (CENAMER Control): 123.900
Panama Center: 133.000

MROC Del/Gnd/Twr (Archives)
San Jose, Costa Rica

Feed Status: UP
Listen in your browser - HTML5 player(in browser, HTML5)
Click here to listen with your own player(launches your MP3 player)

MROC 181300Z 07004KT CAVOK 22/20 A3002 NOSIG

MROC Flight Activity (Flightaware)

Listeners: 0 out of 1341 total

Coco Clearance Delivery/Ground: 121.900
Coco Tower: 118.600

MROC Del/Gnd/Twr/App/Center/Misc (Archives)
San Jose, Costa Rica

Feed Status: UP
Listen in your browser - HTML5 player(in browser, HTML5)
Click here to listen with your own player(launches your MP3 player)

MROC 181300Z 07004KT CAVOK 22/20 A3002 NOSIG

MROC Flight Activity (Flightaware)

Listeners: 4 out of 1341 total

Coco Center (Control over CR Airspace): 119.600
Coco Clearance Delivery: 121.300
Coco Ground: 121.900
Coco Terminal Control: 120.500
Coco Tower: 118.600
Coco UNICOM: 126.800

MRPV Ground/Tower (Archives)
San Jose, Costa Rica

Feed Status: UP
Listen in your browser - HTML5 player(in browser, HTML5)
Click here to listen with your own player(launches your MP3 player)

MRPV 181300Z 16004KT CAVOK 21/17 A3003 NOSIG

MRPV Flight Activity (Flightaware)

Listeners: 0 out of 1341 total

Pavas Ground: 121.700
Pavas Tower: 118.300

MSLP Gnd/Twr/App (Archives)
San Salvador, El Salvador

Feed Status: UP
Listen in your browser - HTML5 player(in browser, HTML5)
Click here to listen with your own player(launches your MP3 player)

MSLP 181250Z VRB02KT 9999 FEW010 SCT077 24/24 Q1012 A2988 NOSIG

MSLP Flight Activity (Flightaware)

Listeners: 0 out of 1341 total

Comalapa Ground: 121.700
Comalapa Tower: 118.000
Compalapa Approach: 119.900

MSLP Gnd/Twr/App/Center (Archives)
San Salvador, El Salvador

Feed Status: UP
Listen in your browser - HTML5 player(in browser, HTML5)
Click here to listen with your own player(launches your MP3 player)

MSLP 181250Z VRB02KT 9999 FEW010 SCT077 24/24 Q1012 A2988 NOSIG

MSLP Flight Activity (Flightaware)

Listeners: 0 out of 1341 total

Avianca Ops: 123.500
CCA: 119.300
CENAMER: 124.100
Comalapa Authorizations: 121.250
Comalapa Departure: 123.900
Comalapa Ground: 121.700
Comalapa Tower: 118.000
Compalapa Approach: 119.900
Ilopango Tower: 118.300
TACA Ops: 130.500

MSSS Tower
San Salvador, El Salvador

Feed Status: DOWN
Offline since: 2021-09-02 04:27:22 UTC

MSSS 181250Z 01006KT 5000 BR FEW030 21/21 Q1016 A3001

Ilopango Tower: 118.300